Starlink 5754

operational
NORAD ID: 55579 Int'l Des: 2023-020 Owner: SPXS Country: US Constellation: starlink
LEOCIRCULAR

About Starlink 5754

Description loading...

Live Position

Loading 3D Globe...

Upcoming Passes

Altitude History

Altitude vs Time

uPlot chart will show altitude changes over time

Two-Line Element Set

1 55579U 23020L 26035.40692032 -.00001132 00000-0 -68787-4 0 9999
2 55579 43.0022 185.4087 0001316 272.3566 87.7125 15.02522167163910
Epoch: Feb 4, 2026 • Age: 14 hours

Current Status

Altitude 561.6 km
Velocity 7.58 km/s
Sub-Earth Point -15.15°S, 29.85°E
Launch Date Feb 12, 2023
Age 2.9 years
Type internet

Technical Details

Classification Payload
Mass 305.00 kg
Dry Mass 290.00 kg
Total Mass 305.00 kg
Length 0.20 m
Diameter 2.80 m
Span 9.00 m
Shape Box + pan
Manufacturer SPXS
Bus Type Starlink
Phase Status In Orbit
Owner/State SPXS/US

Large Constellations

Loading constellations...